FW8773 Weather Reports


time (UTC)temp
C
wind
direction
speed
KPH
gust
KPH
rain 1hr
cm
rain 24hr
cm
rain mn
cm
humidity
%
barometer
mb
20260507144523 13 269 20.9 33.8 0.00 0.08 0.00 56 1015.8
20260507143021 12 254 17.7 27.4 0.00 0.08 0.00 62 1015.8
20260507141517 10 248 17.7 30.6 0.00 0.08 0.00 64 1015.8
20260507140006 9 250 4.8 20.9 0.00 0.10 0.00 69 1016.1
20260507134501 8 263 3.2 14.5 0.00 0.10 0.00 74 1016.0
20260507133058 7 245 4.8 17.7 0.00 0.10 0.00 76 1016.2
20260507131601 6 261 3.2 12.9 0.00 0.10 0.00 78 1016.0
20260507130054 5 252 4.8 14.5 0.00 0.10 0.00 79 1016.1
20260507124551 5 260 3.2 9.7 0.00 0.10 0.00 80 1015.8
20260507123042 4 243 3.2 14.5 0.00 0.10 0.00 82 1015.7
20260507121536 3 243 1.6 11.3 0.00 0.10 0.00 82 1016.1
20260507120031 3 246 3.2 9.7 0.00 0.10 0.00 83 1015.9
20260507114550 3 252 3.2 12.9 0.00 0.13 0.00 83 1016.2
20260507113048 3 240 3.2 8.0 0.00 0.13 0.00 84 1016.4
20260507111535 3 236 3.2 8.0 0.00 0.13 0.00 84 1016.4
20260507110025 3 248 1.6 9.7 0.00 0.13 0.00 85 1016.4
20260507104527 3 238 3.2 8.0 0.00 0.15 0.00 85 1016.8
20260507103025 3 243 3.2 8.0 0.00 0.15 0.00 85 1016.8
20260507101520 3 246 3.2 8.0 0.00 0.15 0.00 85 1017.1
20260507100017 3 227 3.2 9.7 0.00 0.15 0.00 85 1017.1
20260507094517 3 246 3.2 16.1 0.00 0.15 0.00 84 1017.2
20260507093014 3 216 3.2 16.1 0.00 0.15 0.00 85 1017.5
20260507091512 3 253 3.2 12.9 0.00 0.15 0.00 86 1017.6
20260507090010 3 244 3.2 9.7 0.00 0.18 0.00 87 1017.9
20260507084508 2 248 1.6 8.0 0.00 0.18 0.00 87 1018.2
20260507083006 2 242 3.2 16.1 0.00 0.18 0.00 87 1018.3
20260507081506 2 360 3.2 14.5 0.00 0.18 0.00 88 1018.5
20260507080001 2 360 3.2 17.7 0.00 0.20 0.00 88 1018.8
20260507074603 2 360 6.4 17.7 0.00 0.20 0.00 88 1018.9
20260507073100 2 239 6.4 16.1 0.00 0.20 0.00 87 1019.2
20260507071554 2 360 6.4 14.5 0.00 0.20 0.00 88 1019.4
20260507070052 3 150 3.2 16.1 0.00 0.20 0.00 87 1019.6
20260507064552 3 360 4.8 17.7 0.00 0.20 0.00 88 1019.8
20260507063047 3 360 4.8 16.1 0.00 0.20 0.00 88 1020.0
20260507061545 3 360 12.9 19.3 0.00 0.20 0.00 88 1020.3
20260507060042 3 360 9.7 16.1 0.00 0.20 0.00 87 1020.3
20260507054539 3 360 8.0 17.7 0.00 0.23 0.00 87 1020.4
20260507053038 3 360 4.8 19.3 0.00 0.23 0.00 87 1020.4
20260507051535 4 360 4.8 19.3 0.00 0.23 0.00 87 1020.4
20260507050032 4 230 6.4 17.7 0.00 0.23 0.00 87 1020.6
20260507044531 3 225 8.0 19.3 0.00 0.25 0.23 87 1020.8
20260507043033 3 214 3.2 11.3 0.00 0.25 0.23 86 1020.9
20260507041529 4 190 3.2 9.7 0.00 0.25 0.23 85 1021.0
20260507040028 5 360 3.2 11.3 0.00 0.25 0.23 85 1020.9
20260507034534 5 223 4.8 12.9 0.00 0.30 0.23 85 1020.9
20260507033028 5 228 3.2 14.5 0.00 0.30 0.23 85 1021.1
20260507031527 5 360 1.6 14.5 0.00 0.30 0.23 85 1021.0
20260507030027 5 360 1.6 12.9 0.00 0.30 0.23 84 1021.1
20260507024523 5 360 1.6 8.0 0.00 0.33 0.23 83 1021.1
20260507023022 6 360 3.2 9.7 0.00 0.33 0.23 82 1021.0
20260507021522 6 360 3.2 9.7 0.00 0.33 0.23 81 1020.9
20260507020041 6 360 1.6 8.0 0.00 0.33 0.23 80 1020.9
20260507014519 7 360 4.8 14.5 0.00 0.36 0.23 79 1020.9
20260507013022 7 360 11.3 16.1 0.00 0.36 0.23 78 1020.9
20260507011530 7 266 11.3 19.3 0.00 0.36 0.23 77 1020.9
20260507010017 7 360 12.9 20.9 0.00 0.36 0.23 76 1020.7
20260507004515 8 241 17.7 22.5 0.00 0.38 0.23 75 1020.6
20260507003013 8 241 16.1 27.4 0.00 0.38 0.23 76 1020.7
20260507001538 7 239 16.1 22.5 0.00 0.38 0.23 79 1021.1
20260507000013 7 282 8.0 16.1 0.00 0.38 0.23 79 1021.0
20260506234507 7 240 16.1 24.1 0.00 0.38 0.23 75 1020.9
20260506233006 8 259 17.7 24.1 0.00 0.38 0.23 76 1021.0
20260506231608 7 360 14.5 22.5 0.00 0.38 0.23 75 1020.9
20260506230005 8 360 8.0 24.1 0.00 0.41 0.23 76 1020.9
20260506224504 8 360 17.7 24.1 0.00 0.41 0.23 75 1020.9
20260506223004 8 360 16.1 25.7 0.00 0.41 0.23 76 1020.9
20260506221504 8 360 16.1 27.4 0.00 0.41 0.23 76 1020.9
20260506220003 9 221 6.4 16.1 0.00 0.43 0.23 74 1020.9
20260506214501 9 360 6.4 16.1 0.00 0.43 0.23 72 1021.2
20260506213106 10 360 4.8 17.7 0.00 0.43 0.23 72 1021.2
20260506211558 9 360 6.4 16.1 0.00 0.43 0.23 73 1021.5
20260506210100 9 360 1.6 12.9 0.00 0.43 0.23 76 1021.6
20260506204557 8 360 6.4 14.5 0.00 0.43 0.23 77 1021.8
20260506203110 8 360 4.8 12.9 0.00 0.43 0.23 75 1021.8
20260506201548 7 360 1.6 6.4 0.03 0.43 0.23 80 1021.8
20260506200054 7 294 1.6 4.8 0.03 0.43 0.23 83 1021.9
20260506194547 6 360 1.6 9.7 0.03 0.43 0.23 82 1022.1
20260506193050 6 360 1.6 6.4 0.03 0.43 0.23 81 1022.1
20260506191545 7 360 0.0 6.4 0.00 0.41 0.20 79 1022.1
20260506190045 6 14 0.0 0.0 0.00 0.41 0.20 80 1022.2
20260506184545 6 14 0.0 3.2 0.00 0.43 0.20 81 1022.5
20260506183114 6 14 0.0 3.2 0.00 0.43 0.20 82 1022.5
20260506181545 5 15 0.0 4.8 0.00 0.43 0.20 83 1022.5
20260506180038 5 48 1.6 8.0 0.03 0.43 0.20 82 1022.7
20260506174538 6 32 3.2 8.0 0.03 0.43 0.20 83 1022.7
20260506173039 6 28 0.0 6.4 0.03 0.43 0.20 84 1022.7
20260506171535 5 44 0.0 6.4 0.03 0.43 0.20 85 1022.7
20260506170031 5 53 4.8 9.7 0.00 0.41 0.18 85 1022.7
20260506164544 5 26 1.6 6.4 0.00 0.41 0.18 85 1022.7
20260506163025 5 35 3.2 6.4 0.00 0.41 0.18 87 1022.5
20260506161523 5 35 1.6 8.0 0.00 0.41 0.18 88 1022.2
20260506160021 5 69 1.6 6.4 0.00 0.41 0.18 90 1022.0
20260506154520 5 71 1.6 9.7 0.03 0.41 0.18 91 1021.6
20260506153020 5 360 1.6 9.7 0.03 0.41 0.18 92 1021.6
20260506151516 4 223 1.6 12.9 0.03 0.41 0.18 93 1021.6
20260506150010 3 360 0.0 9.7 0.03 0.43 0.18 93 1021.7